Voltar ao catálogo

STARLINK-2579

AtivoComunicaçõesVLEO
NORAD 48459·PAYLOAD·🇺🇸 United States

Lançado May 9, 2021 de Cape Canaveral Space Force Station

Loading…

Próximas Passagens (próximas 24 horas)

TLE

AtualizadoSource: CelesTrak SupGP

Época: Sep 14, 2026, 23:31 UTC

1 48459C 21040AH  26257.98034722 -.00031913  00000+0 -10261-2 0  2571
2 48459  53.1612  17.2446 0001259  82.7529 215.7965 15.31720402    15

Acompanhe STARLINK-2579 em tempo real com AllMySat

Download on the App Store